Theta_e
352 351 349 355 355 354 354 354 350 351 352 351 352 352 350 346 348 350 350 351 348 347 344 343 343 343 344 344 347 347 345 343 343 346 341 341 350 352 353 347 348 352 347
351 351 350 354 355 352 352 351 346 348 349 348 351 352 351 350 349 350 350 348 347 347 346 344 343 342 340 339 340 344 344 344 344 346 348 344 345 350 353 349 352 349 343
351 351 352 352 354 353 344 344 344 347 350 347 351 353 353 353 353 353 351 347 348 349 350 350 346 346 346 349 346 343 344 343 349 349 348 357 349 341 350 350 351 349 342
351 351 352 352 353 354 347 346 347 354 354 354 354 355 354 354 353 353 352 352 350 349 351 353 353 351 347 345 346 344 345 346 348 347 346 350 354 343 343 347 348 349 349
350 350 352 351 352 354 351 349 352 355 354 354 355 354 354 354 354 354 353 353 351 353 353 352 351 348 344 342 342 342 344 347 347 343 347 347 349 350 343 348 346 347 347
348 349 351 350 354 354 350 350 351 352 351 351 352 354 353 353 351 352 354 354 353 350 349 347 347 346 345 344 338 337 342 343 342 352 346 347 344 349 341 343 353 351 345
346 352 351 350 352 353 352 347 347 346 344 345 348 350 351 349 346 348 354 353 349 345 342 344 347 346 347 348 349 349 344 341 346 348 346 348 351 347 346 341 350 349 345
346 351 350 350 352 353 353 349 350 347 350 351 352 348 347 348 349 353 350 347 345 340 339 342 347 350 351 351 352 353 352 350 347 346 346 347 349 343 341 341 346 347 345
346 346 348 349 352 353 353 353 354 350 351 351 354 354 350 351 349 345 341 336 335 338 342 346 349 351 352 352 352 354 351 350 351 349 347 346 350 349 341 344 344 343 344
345 346 346 348 349 347 348 353 354 351 353 353 355 353 354 350 344 337 335 336 340 342 345 348 349 349 350 350 350 352 352 355 354 352 349 347 347 348 345 345 346 346 342
345 348 346 347 348 346 346 348 350 352 353 353 352 353 352 346 346 348 348 350 352 349 348 349 349 350 349 349 347 347 351 354 354 354 351 350 346 344 340 343 345 346 345
345 347 346 345 346 344 345 351 351 351 351 351 352 352 348 345 347 351 353 352 349 348 349 350 350 350 352 354 355 350 353 353 353 354 352 351 350 343 337 342 345 345 347
345 345 347 345 344 345 346 353 349 349 348 349 349 348 347 346 349 351 351 355 356 357 356 355 356 356 356 356 355 357 355 354 353 352 350 350 348 344 342 343 346 347 348
343 344 346 345 346 346 345 346 347 346 345 345 346 348 349 350 351 354 353 353 355 354 356 358 357 356 357 357 355 356 355 352 350 349 352 351 349 346 346 346 347 348 349
343 344 344 345 348 347 346 347 346 345 344 344 345 348 347 349 351 352 353 352 352 353 355 356 358 355 358 357 356 356 355 355 353 351 351 352 352 351 350 350 349 350 351
344 344 345 347 350 352 350 352 351 349 347 346 345 344 348 349 350 351 351 350 351 352 353 354 357 358 356 356 358 355 354 354 354 354 353 355 354 354 353 352 352 352 351
343 344 345 347 350 354 353 354 353 350 348 347 345 347 348 349 352 353 350 350 350 351 354 354 356 358 358 355 357 358 355 354 354 356 356 355 356 357 354 350 352 351 346
344 345 346 346 348 353 353 353 351 349 347 345 344 346 350 351 353 354 352 351 352 353 354 354 355 355 356 357 355 356 356 355 355 355 356 355 357 358 357 352 350 347 343
345 348 349 347 348 350 353 352 351 348 347 345 345 347 350 352 353 354 353 353 353 352 353 355 355 354 356 357 354 353 354 353 354 354 355 356 355 356 359 356 346 344 343
346 349 351 350 350 350 351 353 350 348 346 346 347 347 349 352 354 355 353 353 354 353 353 355 356 357 354 353 354 353 353 353 354 355 356 356 356 358 356 357 350 349 343
347 349 352 353 353 354 354 354 352 350 347 347 347 349 351 352 352 354 353 350 352 352 353 359 355 357 356 354 355 354 353 353 354 354 355 354 354 357 357 357 358 356 352
347 349 352 354 357 358 356 355 353 351 350 349 348 348 350 352 353 353 353 351 349 350 356 359 359 357 352 352 354 354 359 352 354 354 353 353 354 354 355 356 355 355 356
349 350 353 356 357 359 357 356 356 354 353 352 351 351 351 353 355 356 355 353 353 352 350 357 357 357 352 352 356 354 354 359 355 350 355 352 353 353 353 353 356 357 357
350 351 353 357 357 359 360 356 357 356 354 352 352 352 353 354 357 358 357 357 356 354 351 354 359 356 355 354 353 353 355 356 353 351 353 355 355 355 354 354 354 356 358
352 351 352 356 358 359 361 358 357 357 354 354 353 353 355 355 356 357 358 358 358 357 353 352 356 359 357 355 354 352 355 355 354 356 354 355 356 353 353 354 353 353 355
355 353 353 356 360 362 363 362 360 357 358 355 354 354 354 354 355 358 358 359 358 357 354 353 358 359 357 355 354 355 353 354 353 356 357 355 353 351 354 352 350 351 352
Wind_Speed
22 21 19 15 16 18 18 17 18 18 17 17 16 15 15 14 14 12 12 10 9 8 7 6 5 4 2 2 1 1 1 1 1 2 2 3 5 5 6 5 8 6 8
27 23 22 18 18 19 19 18 18 18 17 17 15 12 11 12 11 11 10 9 7 6 4 4 3 2 1 1 0 1 1 2 1 2 2 3 8 7 6 4 2 9 9
27 25 22 21 19 19 19 18 18 17 16 15 13 11 10 10 10 9 8 7 5 4 3 2 1 1 1 1 1 1 2 2 2 1 4 9 11 9 6 4 4 5 7
28 26 23 22 20 19 19 19 18 16 15 14 12 10 9 9 8 7 6 5 3 2 1 1 1 1 0 1 1 1 1 2 4 5 7 8 8 8 6 5 5 5 7
27 26 25 24 20 19 18 18 17 15 14 13 11 9 9 8 7 6 4 3 2 2 2 2 2 2 3 3 3 3 3 3 3 5 3 2 1 5 5 6 5 6 6
26 26 25 24 20 18 17 16 15 14 13 12 11 10 9 8 6 5 4 3 3 3 3 4 4 5 6 6 6 5 5 5 6 10 4 7 5 3 5 5 9 8 6
26 26 25 24 20 18 17 16 14 13 12 11 10 9 8 7 7 6 5 5 5 5 6 7 8 9 9 8 9 9 8 8 9 13 6 6 7 6 8 7 10 9 8
25 22 24 23 20 18 16 15 13 12 10 8 9 8 8 7 6 7 7 7 7 8 9 9 10 11 10 10 11 11 10 10 10 10 8 9 9 5 8 9 8 10 11
22 23 22 21 19 18 16 14 13 12 11 11 11 10 8 7 9 9 9 10 10 10 10 10 10 11 11 11 11 12 11 12 10 13 10 10 13 9 9 9 10 11 12
21 23 22 21 19 17 15 15 13 11 13 12 10 10 10 11 11 10 11 11 8 10 10 10 10 12 12 13 13 13 13 12 12 14 12 10 7 8 10 11 11 13 15
21 22 22 21 20 18 16 15 14 12 12 11 10 11 10 9 12 11 13 14 13 14 14 13 11 11 12 13 14 14 12 11 13 14 13 17 14 14 14 13 12 13 16
23 22 23 21 20 19 16 16 14 13 12 12 12 11 10 11 9 7 2 10 15 17 13 14 11 7 9 11 14 12 12 13 16 17 14 11 10 12 16 15 13 15 15
22 22 21 20 19 19 16 15 14 15 13 13 12 12 11 10 9 9 10 14 12 18 13 9 14 7 11 13 14 17 13 14 16 16 9 12 10 12 15 15 15 15 16
23 22 21 20 19 18 15 14 14 13 13 12 12 13 11 10 9 10 10 9 9 12 13 4 2 3 6 9 7 10 11 11 12 11 8 11 10 12 14 15 16 16 16
23 21 21 20 19 17 15 14 13 12 12 12 11 12 12 11 10 10 9 10 10 8 12 10 9 8 8 10 11 11 13 12 13 12 9 12 12 13 16 16 16 16 16
23 22 21 20 19 18 16 12 13 12 12 12 11 11 12 12 10 10 10 11 13 10 12 12 6 10 5 9 17 12 9 12 12 15 14 14 13 13 15 16 16 16 15
23 21 21 20 20 19 17 16 14 13 13 12 12 10 11 12 12 10 11 12 11 8 9 10 11 11 13 14 17 13 6 10 13 10 14 12 16 17 13 15 16 15 13
22 22 22 22 22 21 19 17 16 15 14 13 13 12 13 13 12 10 11 13 10 7 11 15 12 12 12 12 19 8 12 12 13 12 12 16 12 16 17 16 16 15 14
23 23 22 21 21 21 20 18 17 15 15 14 13 13 13 13 14 13 13 15 9 11 10 15 12 13 12 13 13 15 14 12 12 13 12 11 14 15 15 16 14 15 14
25 23 24 22 20 19 19 18 17 17 17 16 15 15 14 15 15 14 15 14 11 16 14 7 12 10 12 14 14 15 13 15 12 13 12 12 13 14 14 12 13 14 16
27 27 25 24 22 21 19 18 18 17 17 17 17 16 15 16 15 15 15 15 15 15 13 8 11 14 12 12 10 15 21 17 20 17 17 12 13 12 14 14 14 13 17
29 29 28 27 24 23 20 19 18 17 16 16 16 17 19 19 18 17 17 16 15 15 5 8 8 11 12 6 9 12 8 16 13 9 10 9 8 10 13 16 17 18 16
30 31 30 29 27 27 24 21 17 16 16 16 18 19 19 19 19 19 19 18 17 14 16 12 9 9 11 10 6 7 5 6 3 7 20 10 8 10 13 15 16 16 16
30 30 30 31 32 30 27 24 23 21 21 21 20 19 18 20 21 20 20 20 19 18 18 16 12 14 13 11 9 12 13 15 6 5 6 12 6 10 12 13 17 17 18
29 30 31 31 31 29 30 29 27 26 25 23 22 21 19 19 20 21 21 22 21 20 19 20 15 12 12 13 11 13 13 7 9 7 8 5 8 10 13 15 16 18 22
30 30 29 30 29 28 27 30 31 30 29 24 23 22 21 21 21 24 22 21 21 20 21 21 19 15 16 15 15 11 11 8 11 11 7 11 13 11 21 20 17 16 18
Wind_Direction
145 148 143 136 137 139 143 145 143 140 136 133 127 122 121 126 127 127 125 123 121 117 107 104 106 112 109 105 99 46 9 30 64 87 96 125 126 137 141 126 127 142 140
145 148 144 139 137 140 144 148 149 146 143 139 138 133 130 132 135 135 136 137 131 131 120 109 108 96 102 109 161 251 246 218 192 189 185 151 159 152 160 145 170 148 154
143 149 146 144 141 142 147 150 150 151 151 151 151 146 141 141 143 144 147 148 136 139 134 126 108 93 62 47 71 199 211 200 205 211 220 218 168 141 156 155 140 152 160
144 149 150 149 147 145 150 155 154 150 150 151 153 151 147 147 149 151 155 155 158 159 152 160 170 183 237 239 281 289 177 206 202 226 244 250 171 141 162 169 190 177 173
146 153 157 154 155 152 154 155 155 156 158 158 158 158 156 157 160 163 169 181 191 197 211 225 253 264 265 266 263 260 250 253 252 214 254 217 224 157 177 183 190 191 186
151 153 161 161 158 158 160 160 162 165 170 172 170 169 169 172 183 189 188 200 217 234 248 254 259 263 264 266 270 261 253 253 256 254 206 204 248 198 208 194 183 191 199
158 146 159 166 164 163 163 165 168 174 179 182 181 183 186 193 194 200 208 227 233 241 251 258 262 263 263 261 260 259 257 253 259 281 234 232 192 249 230 199 188 195 195
152 152 160 166 169 168 170 170 174 180 182 184 183 189 190 201 205 214 223 235 243 251 256 260 262 261 259 258 256 253 251 249 252 253 253 245 225 226 212 208 193 197 198
149 155 160 166 170 171 173 176 181 181 184 194 186 189 193 202 220 230 238 246 250 252 255 258 260 261 260 256 253 251 249 256 250 260 237 242 223 230 226 217 211 211 209
157 156 163 168 172 176 182 182 187 193 192 194 194 196 201 216 233 241 249 258 260 261 254 253 257 261 261 258 254 249 244 249 251 248 248 231 225 235 234 223 224 228 225
171 158 168 170 175 178 181 189 187 196 195 201 208 215 223 229 235 232 235 241 259 256 246 240 240 250 253 253 249 245 239 246 245 251 229 240 228 249 241 230 229 236 236
174 169 171 176 177 180 186 180 191 198 201 205 210 214 225 235 244 252 251 243 259 255 263 266 245 223 245 246 239 227 224 230 235 229 236 206 235 247 235 233 234 238 240
177 175 174 180 180 181 190 180 193 197 203 208 213 216 227 238 234 238 233 242 253 264 250 206 232 218 237 258 232 217 223 219 250 233 203 217 242 238 232 231 234 238 241
181 181 180 183 182 190 191 194 197 201 201 209 211 216 228 229 235 250 248 234 252 282 289 314 342 293 246 274 263 254 247 248 240 240 208 220 243 245 240 232 236 238 243
182 186 189 183 184 198 194 197 210 209 208 214 213 210 220 227 233 237 249 261 275 286 286 295 277 250 215 247 242 245 258 252 260 258 238 223 237 248 246 239 240 243 245
182 188 190 185 188 197 200 209 210 214 216 220 222 221 212 226 235 241 242 255 255 252 271 254 292 300 304 272 258 218 244 263 249 261 263 224 235 245 245 242 236 242 245
182 192 194 193 193 198 203 208 214 221 219 221 225 229 219 225 234 248 257 262 259 280 292 270 278 288 282 269 270 265 229 252 269 247 270 261 209 247 244 232 230 225 231
188 193 198 197 196 199 204 209 217 221 227 225 227 225 213 222 232 235 245 248 249 269 284 300 264 253 262 281 304 299 253 255 259 260 260 264 237 224 227 219 212 212 218
197 189 199 198 202 201 206 211 218 224 226 233 232 228 215 222 226 232 244 251 245 267 266 267 277 271 291 287 286 289 287 259 257 256 248 254 259 269 246 214 194 210 217
193 196 198 200 204 203 204 212 221 225 227 227 232 234 230 229 229 231 241 252 264 264 255 294 286 296 304 291 284 286 277 264 255 245 245 249 243 245 252 205 196 209 220
196 198 196 200 196 199 203 205 215 222 223 228 231 232 234 237 239 235 241 249 238 250 254 260 304 261 274 293 291 285 315 262 245 226 227 230 251 226 236 232 192 209 215
196 197 197 200 198 200 205 213 216 220 227 228 232 233 229 233 237 241 242 249 256 269 225 245 253 282 290 305 279 321 295 301 251 354 225 221 245 251 229 235 242 231 217
200 198 197 199 197 201 210 210 217 232 239 237 235 237 234 233 235 238 247 246 251 251 263 238 221 239 269 295 280 278 295 296 7 313 238 201 200 239 244 223 223 229 229
204 200 201 198 204 201 202 215 211 219 224 231 237 241 237 229 231 232 235 239 244 248 252 257 216 228 221 261 271 246 254 307 323 304 128 225 181 226 227 237 221 222 222
205 205 202 201 204 205 200 207 215 220 230 235 240 244 233 241 229 235 230 228 231 240 246 248 265 236 245 248 261 275 223 298 283 285 311 341 222 235 226 221 233 229 214
208 206 203 200 205 204 207 211 217 221 220 232 234 241 244 241 234 227 231 231 232 236 240 237 234 242 251 251 256 281 270 249 258 223 227 254 276 253 215 223 217 226 232